Regional Weather Roundup
Issued by NWS

Home | Current Version | Previous Version | Graphics & Text | Print | Product List | Glossary On
Versions: 1 2 3 4 5 6 7 8 9 10 11 12 13 14 15 16 17 18 19 20 21 22 23 24 25 26 27
000
ASUS45 KBOU 200407
RWRCO

WEATHER ROUNDUP FOR COLORADO
NATIONAL WEATHER SERVICE DENVER/BOULDER CO
1000 PM MDT SAT AUG 19 2017

NOTE: "FAIR" INDICATES FEW OR NO CLOUDS BELOW 12000 FEET WITH NO
SIGNIFICANT WEATHER AND/OR OBSTRUCTIONS TO VISIBILITY.

COZ001>005-013-030-031-200500-
...NORTHWEST COLORADO...

CITY           SKY/WX    TMP DP  RH WIND       PRES   REMARKS
CRAIG          FAIR      63  32  31 CALM      30.16R
HAYDEN         FAIR      70  33  25 SW3       30.21R
MEEKER         FAIR      59  37  44 NE5       30.19R
RABBIT EARS PA FAIR      54  30  40 W6        30.51S
STEAMBOAT SPGS FAIR      64  33  32 E5        30.22S
WALDEN         FAIR      50  32  50 SE9       30.32S
$$

COZ006>008-011-200500-
...WEST CENTRAL VALLEYS...

CITY           SKY/WX    TMP DP  RH WIND       PRES   REMARKS
GRAND JUNCTION FAIR      80  34  19 SW3       30.04R
MONTROSE       FAIR      73  39  29 S8        30.15R
EAGLE          FAIR      67  36  31 E9        30.22R
RIFLE          FAIR      69  36  29 S3        30.12R
DELTA          FAIR      75  37  24 N8        30.08S
NUCLA          FAIR      73  32  21 NE5       30.18R
$$

COZ017>023-064>068-200500-
...SOUTHWEST COLORADO...

CITY           SKY/WX    TMP DP  RH WIND       PRES   REMARKS
DURANGO        FAIR      64  36  35 N3        30.19R
CORTEZ         FAIR      66  36  32 E9        30.13R
PAGOSA SPRINGS FAIR      60  31  33 CALM      30.29R
TELLURIDE      FAIR      61  33  35 E3        30.43R
WOLF CREEK PAS FAIR      52  27  37 CALM      30.67S
$$

COZ009-010-012-014-032>034-037-058>063-200500-
...CENTRAL COLORADO...

CITY           SKY/WX    TMP DP  RH WIND       PRES   REMARKS
ASPEN          FAIR      59  37  44 SW10      30.30R
BUENA VISTA    FAIR      62  31  30 NW7       30.32R
COPPER MTN     FAIR      54  28  37 NW7       30.64S
BERTHOUD PASS  FAIR      45  39  81 NW18      30.66S
COTTONWOOD PAS FAIR      63  25  23 W9        30.47R
GUNNISON       FAIR      59  38  45 NE5       30.31R
KREMMLING      FAIR      68  32  26 SW6       30.27S
LEADVILLE      FAIR      49  31  49 E5        30.46R
SALIDA         MOCLDY    66  36  33 SW8       30.35R
SUNLIGHT       FAIR      54  28  37 CALM      30.56S
WILKERSON PASS FAIR      54  27  35 N8        30.60S
$$

COZ069>075-200500-
...SAN LUIS VALLEY/SANGRE DE CRISTO MOUNTAINS...

CITY           SKY/WX    TMP DP  RH WIND       PRES   REMARKS
ALAMOSA        FAIR      66  39  37 CALM      30.26R
DEL NORTE      FAIR      61  36  39 SW12G17   30.31R
LA VETA PASS   NOT AVBL
SAGUACHE       FAIR      64  34  32 NW12      30.29S
$$

COZ035-036-038>040-200500-
...NORTHERN COLORADO FRONT RANGE...

CITY           SKY/WX    TMP DP  RH WIND       PRES   REMARKS
DENVER INTL AP MOCLDY    75  36  24 S12       30.06R
DMNS CITY PARK   N/A     75  39  26 S6G13     30.07S
AURORA         MOCLDY    74  39  28 S8        30.10R
FRONT RANGE AP FAIR      73  39  29 S6        30.08S
ERIE MUNI ARPT FAIR      75  38  25 SW6       30.11R
BOULDER MUN AP FAIR      77  39  25 CALM      30.07S
CENTENNIAL     FAIR      70  39  32 S9        30.12R
BROOMFIELD     MOCLDY    77  37  24 SW5       30.10R
FORT COLLINS   FAIR      73  48  41 SW8       30.04R
LONGMONT       FAIR      82  37  20 SW12      30.06R
$$

COZ041-046-047-076>085-087-088-200500-
...PIKES PEAK/PALMER DIVIDE AND SOUTHERN FOOTHILLS...

CITY           SKY/WX    TMP DP  RH WIND       PRES   REMARKS
COLO. SPRINGS  MOCLDY    72  45  37 NW5       30.17R
A. F. ACADEMY  MOCLDY    65  46  49 N5        30.19R
SCHRIEVER AFB  FAIR      69  39  33 SW3       30.16S
CHEYENNE MTN   MOCLDY    73  37  26 S9        30.17S
ELLICOTT       NOT AVBL
FALCON         FAIR      65  42  43 W12       30.23R
FORT CARSON    FAIR      66  49  53 NW9       30.13R
LIMON          FAIR      68  52  56 SE3       30.10R
MONUMENT HILL  FAIR      64  37  36 CALM      30.25S
CANON CITY     CLEAR     73  48  40 CALM      30.09R
WALSENBURG     FAIR      73  41  31 W9        30.13R
TRINIDAD       FAIR      68  48  48 W5        30.12R
$$

COZ042>045-048>051-090-091-200500-
...NORTHEAST COLORADO...

CITY           SKY/WX    TMP DP  RH WIND       PRES   REMARKS
GREELEY ARPT   FAIR      75  47  36 SW10      30.02R
AKRON          FAIR      74  49  41 SW7       29.99R
BURLINGTON     FAIR      74  51  44 SW13      30.00R
WRAY           NOT AVBL
YUMA           FAIR      66  46  48 SW8       29.95R
STERLING       FAIR      64  55  72 N6        29.93S
HOLYOKE        FAIR      72  63  73 CALM      29.92S
FORT MORGAN    FAIR      76  39  26 SW8       30.01R
$$

COZ086-089-092>099-200500-
...SOUTHEAST COLORADO...

CITY           SKY/WX    TMP DP  RH WIND       PRES   REMARKS
PUEBLO         FAIR      75  48  38 E3        30.03R
LA JUNTA       FAIR      75  49  39 SW12      30.00R
LAMAR          FAIR      71  51  49 CALM      29.96R
SPRINGFIELD      N/A     62  58  86 S7        30.04R
$$




USA.gov is the U.S. government's official web portal to all federal, state and local government web resources and services.